Location: Davayat
(45.9471°N, 3.1105°E)
Time: 21:17:11
(UTC+00:00)

Meteor 2-12 Rocket - Pass Details

Date: 27 April 2021
Orbit: 935 x 958 km, 82.5° (Epoch: 16 May)

Event Time Altitude Azimuth Distance (km) Brightness Sun altitude
Rises 22:14:33 0° 357° (N) 3,626 8.6 -26.5°
Reaches altitude 10° 22:17:21 10° 8° (N) 2,673 7.5 -26.7°
Maximum altitude 22:22:46 32° 70° (ENE) 1,548 5.5 -27.1°
Enters shadow 22:23:21 32° 81° (E) 1,564 5.4 -27.1°
